Location: Sebastopol
(38.4021°N, 122.8239°W)
Time: 14:52:37
(UTC+00:00)

Daily predictions for brighter satellites

Satellite Brightness Start Highest point End
(mag) Time Altitude Azimuth Time Altitude Azimuth Time Altitude Azimuth
ERS-2 4.4 12:06:52 10° SE 12:09:49 24° ENE 12:10:47 21° NE
Nadezhda 4 Rocket 4.1 12:04:03 10° S 12:10:07 72° E 12:16:14 10° N
CZ-4B R/B 4.3 12:08:14 10° ESE 12:10:33 17° ENE 12:12:53 10° NNE
Cosmos 2082 Rocket 2.4 12:09:55 50° SSE 12:11:12 65° ESE 12:16:45 10° NNE
Cosmos 2369 4.4 12:08:19 23° N 12:11:37 51° ENE 12:17:05 10° SE
Lacrosse 5 rocket 3.9 12:18:45 11° NNE 12:18:45 11° NNE 12:18:58 10° NNE
DELTA 2 R/B (1) 4.5 12:19:26 36° S 12:19:26 36° S 12:23:29 10° SE
Cosmos 2180 Rocket 4.3 12:13:31 10° NNW 12:19:43 71° W 12:25:50 10° S
ALOS 3.3 12:22:46 10° NNE 12:27:16 46° E 12:31:44 10° S
BREEZE-M DEB (TANK) 4.4 12:28:32 47° NW 12:30:30 87° NE 12:49:23 10° SE
Cosmos 1697 Rocket 2.6 12:31:55 32° NNW 12:34:39 87° WSW 12:40:19 10° SSE
Abrixas rocket 4.3 12:38:21 21° NE 12:38:21 21° NE 12:39:53 10° E
ISS -1.1 12:41:10 13° NNE 12:41:10 13° NNE 12:41:48 10° NNE
COSMOS 2406 4.3 12:41:49 27° NNW 12:41:49 27° NNW 12:45:19 10° N
FENGYUN 3A 3.9 12:36:38 10° NNE 12:42:04 70° ESE 12:47:28 10° S
ATLAS CENTAUR R/B 3.7 12:42:30 10° SSE 12:45:36 22° ESE 12:48:35 10° ENE
ATLAS 3B R/B 2.7 12:44:55 41° WSW 12:46:50 54° NW 12:53:20 10° NNE
ADEOS 3.6 12:43:26 10° NNE 12:48:42 84° ESE 12:53:55 10° SSW
Cosmos 1400 Rocket 3.5 12:46:17 10° N 12:50:09 53° E 12:53:55 10° SSE
Cosmos 1300 2.8 12:46:34 10° N 12:50:23 72° E 12:54:11 10° SSE
ADEOS Rocket 2.8 12:45:10 10° S 12:50:27 50° W 12:55:52 10° NNW
Meteor 2-5 Rocket 3.7 12:46:12 10° SSW 12:51:49 64° W 12:57:36 10° N
NOSS 8 (A) 4.5 12:57:01 56° N 12:57:01 56° N 12:59:34 10° NNE
Cosmos 1980 Rocket 2.3 12:52:28 10° NNW 12:58:05 77° ENE 13:03:41 10° SSE
SL-14 R/B 4.0 13:02:57 36° NW 13:02:57 36° NW 13:05:52 10° N
CZ-4B R/B 3.9 12:58:02 10° NNE 13:02:10 82° E 13:06:05 10° S
Cosmos 2228 3.0 12:59:12 10° NNW 13:03:31 58° W 13:07:49 10° S
Cosmos 1726 Rocket 3.5 12:59:13 10° N 13:03:41 82° W 13:08:08 10° S
Cosmos 1992 Rocket 3.9 12:59:23 10° NNW 13:04:35 69° WSW 13:09:44 10° S
Cosmos 2026 Rocket 4.0 13:00:27 10° S 13:06:50 88° W 13:13:14 10° N
Cosmos 2195 Rocket 4.4 13:06:00 10° SSW 13:12:10 68° W 13:18:19 10° N
CZ-2C R/B 3.6 13:13:05 10° NNW 13:16:07 22° NW 13:16:07 22° NW
Meteor PRIRODA 4.4 13:13:47 10° NNE 13:17:23 54° E 13:20:59 10° S
Meteor 2-10 Rocket 4.4 13:13:06 10° N 13:18:01 50° ENE 13:23:00 10° SSE
Cosmos 614 Rocket 3.8 13:13:26 10° SSW 13:18:35 75° WNW 13:23:42 10° NNE
Cosmos 1606 Rocket 4.0 13:15:50 10° NNW 13:20:01 40° W 13:24:11 10° SSW
Cosmos 2360 4.5 13:15:33 11° NW 13:20:42 45° WSW 13:26:03 10° S
Cosmos 1484 Rocket 3.2 13:17:58 10° N 13:21:31 37° WNW 13:25:00 10° SW
Cosmos 1315 Rocket 4.1 13:19:45 10° N 13:23:43 44° ENE 13:27:39 10° SSE
Cosmos 1689 Rocket 2.4 13:22:28 10° SSE 13:25:21 64° ENE 13:28:15 10° N
H-2A R/B 4.3 13:23:39 10° SW 13:23:42 10° SW 13:23:42 10° SW
COSMO-SKYMED 1 2.6 13:23:33 10° SSE 13:27:52 81° ENE 13:32:14 10° N
Cosmos 1833 Rocket 4.1 13:29:06 17° WNW 13:29:49 17° NW 13:33:26 10° NNW
Cosmos 2322 Rocket 3.9 13:25:48 10° N 13:30:53 33° ENE 13:35:55 10° ESE
Cosmos 2278 3.8 13:25:46 10° NNW 13:31:14 53° WSW 13:36:42 10° S
Uosat 12 SS-18 rocket 4.5 13:26:48 10° SSW 13:31:43 71° ESE 13:36:06 10° NE
METEOR-M 4.3 13:27:47 10° N 13:32:56 49° WNW 13:38:02 10° SW
SAR-Lupe-4 3.7 13:32:33 10° S 13:36:00 48° W 13:39:28 10° NNW
SJ-12 3.9 13:32:05 10° N 13:36:08 59° WNW 13:40:08 10° SSW
Cosmos 1455 3.3 13:34:02 10° N 13:37:48 48° E 13:41:32 10° SSE
SL-19 R/B 4.3 13:37:32 10° N 13:40:04 30° WNW 13:42:44 10° SW
H-2A R/B 4.0 13:37:01 10° NNE 13:41:07 41° E 13:45:02 10° S
Cosmos 1023 Rocket 4.4 13:36:51 10° SSW 13:41:56 85° WNW 13:47:03 10° NNE
CZ-4B R/B 2.6 13:39:48 10° SSW 13:42:37 23° W 13:45:26 10° NW
ERS-2 3.5 13:40:41 10° SW 13:43:18 19° W 13:45:22 13° WNW
deb Chang Zheng 4 4.4 13:41:53 10° NNW 13:45:28 27° WNW 13:49:04 10° SW
Meteor 1-31 Rocket 3.7 13:43:22 10° NNW 13:46:42 27° WNW 13:50:02 10° SW
Meteor 2-19 Rocket 4.4 13:41:49 10° SSW 13:47:53 75° W 13:53:59 10° N
CREW DRAGON DEMO-1 DEB 4.0 13:48:31 10° NW 13:51:21 36° NNE 13:54:09 10° ESE
Cosmos 2292 Rocket 2.9 13:49:03 10° S 13:52:06 82° E 13:55:48 10° N
Cosmos 1703 3.8 13:48:40 10° S 13:52:29 64° E 13:56:21 10° NNE
Cosmos 1190 Rocket 4.0 13:48:58 10° SSW 13:54:11 69° WNW 13:59:25 10° NNE
Cosmos 2082 Rocket 3.6 13:51:58 10° W 13:55:45 18° NW 13:59:35 10° N
Okean 1-7 Rocket 4.5 13:53:14 10° SW 13:57:08 28° WNW 14:01:03 10° NNW
Cosmos 2058 Rocket 3.8 13:53:35 10° NNW 13:57:34 32° W 14:01:30 10° SSW
PSLV R/B 4.3 13:57:39 10° S 14:01:41 46° W 14:05:46 10° NNW
ALOS 3.7 14:01:16 10° NNW 14:04:17 17° WNW 14:07:17 10° WSW
PSLV R/B 3.9 14:02:35 10° N 14:06:43 73° WNW 14:10:46 10° SSW
CZ-4B R/B 3.7 14:03:06 10° N 14:06:45 31° WNW 14:10:32 10° SW
Cosmos 2098 Rocket 3.8 14:02:02 10° SSW 14:08:02 54° W 14:12:52 10° N
SL-16 R/B 2.4 14:02:29 10° NNW 14:08:11 83° ENE 14:13:51 10° SSE
CZ-4B DEB 4.3 14:04:53 10° NNE 14:10:24 87° ESE 14:15:51 10° SSW
